This is the latest recevied weather packets stored in our database for station/object HS5AU-13. If no packets are shown the sender has not sent any weather packets the latest 10 day(s).
| Time | Temp. | Humidity | Pressure | Rain* | Wind** | Luminosity | Snow |
|---|---|---|---|---|---|---|---|
| 1787756097 | 22.22° C | 99% | 1006.6 hPa | 0 mm | - | 2 W/m² | - |
| 1787755497 | 22.22° C | 99% | 1006.4 hPa | 0 mm | - | 2 W/m² | - |
| 1787754897 | 22.22° C | 99% | 1004.5 hPa | 0 mm | - | 2 W/m² | - |
| 1787754297 | 22.22° C | 99% | 1004.2 hPa | 0 mm | - | 2 W/m² | - |
| 1787753697 | 22.22° C | 99% | 1004.1 hPa | 0 mm | - | 2 W/m² | - |
| 1787753097 | 22.22° C | 99% | 1003.9 hPa | 0 mm | - | 2 W/m² | - |
| 1787752497 | 22.22° C | 99% | 1003.9 hPa | 0 mm | - | 2 W/m² | - |
| 1787751897 | 22.22° C | 99% | 1003.8 hPa | 0 mm | - | 2 W/m² | - |
| 1787751297 | 22.22° C | 99% | 1003.7 hPa | 0 mm | - | 2 W/m² | - |
| 1787750697 | 22.22° C | 99% | 1003.6 hPa | 0 mm | - | 2 W/m² | - |
| 1787750097 | 22.22° C | 99% | 1003.4 hPa | 0 mm | - | 2 W/m² | - |
| 1787749497 | 22.22° C | 99% | 1003.2 hPa | 0 mm | - | 2 W/m² | - |
| 1787748897 | 22.22° C | 99% | 1003.2 hPa | 0 mm | - | 2 W/m² | - |
| 1787748297 | 22.22° C | 99% | 1002.8 hPa | 0 mm | - | 2 W/m² | - |
| 1787747697 | 22.22° C | 99% | 1002.7 hPa | 0 mm | - | 2 W/m² | - |
| 1787747097 | 22.22° C | 99% | 1002.4 hPa | 0 mm | - | 2 W/m² | - |
| 1787746497 | 22.78° C | 99% | 1001.9 hPa | 0 mm | - | 2 W/m² | - |
| 1787745897 | 22.78° C | 99% | 1001.1 hPa | 0 mm | - | 2 W/m² | - |
| 1787745297 | 22.78° C | 99% | 1000.1 hPa | 0 mm | - | 2 W/m² | - |
| 1787744697 | 23.33° C | 99% | 999.1 hPa | 0 mm | - | 2 W/m² | - |
| 1787744097 | 23.89° C | 95% | 998.2 hPa | 0 mm | - | 4 W/m² | - |
| 1787743497 | 23.33° C | 92% | 998.2 hPa | 0 mm | - | 14 W/m² | - |
| 1787742897 | 23.89° C | 94% | 997.9 hPa | 0 mm | - | 20 W/m² | - |
| 1787742297 | 23.89° C | 93% | 997.5 hPa | 0 mm | - | 28 W/m² | - |
| 1787741697 | 23.33° C | 94% | 998 hPa | 0 mm | - | 33 W/m² | - |
* Rain latest hour (hover to see other rain measurements)
** Current wind speed in m/s (hover to see current wind gust speed)